Regional Weather Roundup
Issued by NWS

Home | Current Version | Previous Version | Text Only | Print | Product List | Glossary On
Versions: 1 2 3 4 5 6 7 8 9 10 11 12 13 14 15 16 17 18 19 20 21 22 23 24 25 26 27 28 29 30 31 32 33 34 35 36 37 38 39 40 41 42 43 44 45 46 47 48 49 50
000
ASHW40 PHFO 310110
RWRHI

WEATHER ROUNDUP FOR HAWAII
NATIONAL WEATHER SERVICE HONOLULU HI
300 PM HST FRI JAN 30 2015

THIS IS AN AUTOMATED REPORT THAT HAS NOT BEEN QUALITY CONTROLLED.

NOTE..."FAIR" INDICATES FEW OR NO CLOUDS BELOW 12,000 FEET WITH NO
SIGNIFICANT WEATHER AND/OR OBSTRUCTIONS TO VISIBILITY.

* - THESE SITES REPORT LIMITED FIELDS

HIZ001>004-310200-
KAUAI-NIIHAU-

CITY           SKY/WX    TMP DP  RH WIND       PRES   REMARKS
LIHUE APT      PTSUNNY   73  59  60 E8        29.94F
PORT ALLEN*      N/A     79 N/A N/A W8          N/A
POIPU*           N/A     77 N/A N/A S6G12       N/A
PRINCEVILLE*     N/A     72 N/A N/A MISG        N/A
KOKOLE POINT*  NOT AVBL
MOLOAA DAIRY*  NOT AVBL
WAIMEA HTS*    NOT AVBL
PUU OPAE*      NOT AVBL
PUU LUA*       NOT AVBL
MAKAHA RIDGE*  NOT AVBL
$$

HIZ005>011-310200-
OAHU-

CITY           SKY/WX    TMP DP  RH WIND       PRES   REMARKS
HONOLULU       MOSUNNY   77  63  61 SW10      29.91F
KALAELOA       SUNNY     78  61  55 SW10      29.92F
KANEOHE MCB    PTSUNNY   75  65  72 NW8       29.87
WHEELER FIELD  FAIR      74  63  68 N12       29.93F
BELLOWS*       NOT AVBL
KAHUKU*        NOT AVBL
WHEELER*       NOT AVBL
WAIANAE HARBOR NOT AVBL
DILLINGHAM*      N/A     79  64  61 MISG        N/A
KAHUKU TRN*      N/A     72  61  68 NE2         N/A
KAWAILOA*        N/A     70  63  78 N6          N/A
KII*             N/A     73  63  68 NW3         N/A
MAKUA RANGE*     N/A    N/A N/A N/A W3G10       N/A
OAHU FOREST NW NOT AVBL
SCHOFIELD BRK*   N/A     73  63  68 MISG        N/A
SCHOFIELD S*   NOT AVBL
WAIANAE VLY*   NOT AVBL
KUAOKALA*      NOT AVBL
HONOULIUULI*   NOT AVBL
MOKUOLOE IS*   NOT AVBL
PALEHUA*       NOT AVBL
WAIAWA PHB*    NOT AVBL
$$

HIZ012>013-310200-
MOLOKAI-

CITY           SKY/WX    TMP DP  RH WIND       PRES   REMARKS
MOLOKAI AIRPT  PTSUNNY   75  67  76 N8        29.94S
KALAUPAPA      NOT AVBL
MAKAPULAPAI*   NOT AVBL
MOLOKAI 1*     NOT AVBL
PUU ALII*      NOT AVBL
$$

HIZ016-310200-
KAHOOLAWE-

CITY           SKY/WX    TMP DP  RH WIND       PRES   REMARKS
KAHOOLAWE*     NOT AVBL
HAKIOAWA*      NOT AVBL
HONOKANAIA*      N/A     82  66  59 W8        29.93F
KANELOA*         N/A     81  68  65 MISG      29.16F
KEALIALALO*    NOT AVBL
LUA MAKIKA*    NOT AVBL
$$

HIZ014>015-310200-
LANAI-

CITY           SKY/WX    TMP DP  RH WIND       PRES   REMARKS
LANAI CITY     FAIR      80  65  60 W8        29.98S
LANAI 1*       NOT AVBL
$$

HIZ017>028-310200-
MAUI-

CITY           SKY/WX    TMP DP  RH WIND       PRES   REMARKS
KAHULUI        PTSUNNY   80  68  66 NE10      29.92F
KAPALUA-W MAUI MOSUNNY   77  66  69 N12       29.93
HANA AIRPORT   LGT RAIN  72  68  88 CALM      29.95S
HANA*          NOT AVBL
HALEAKALA SUMM   N/A     50  14  23 SW13G26     N/A
MAALAEA BAY*   NOT AVBL
HALEAKALA*     NOT AVBL
KAUPO GAP*     NOT AVBL
KULA 1*          N/A    N/A N/A N/A S17G25      N/A
$$

HIZ023>026-310200-
BIG ISLAND OF HAWAII COAST AND LOWER SLOPES-

CITY           SKY/WX    TMP DP  RH WIND       PRES   REMARKS
KAILUA KONA    PTSUNNY   81  67  62 NW10      29.90F
HILO           CLOUDY    78  66  66 N6        29.92S
HONOKAA*       NOT AVBL
KAWAIHAE MWT*  NOT AVBL
KAWAIHAE*        N/A     77 N/A N/A W13         N/A
SOUTH POINT*   NOT AVBL
UPOLU AIRPORT* NOT AVBL
KAMUELA*       NOT AVBL
HAKALAU*         N/A     57  54  90 E6          N/A
KALOKO-HONOKO* NOT AVBL
PALI 2*          N/A     66  64  94 SE3G10      N/A
KEALAKOMO*       N/A     79  70  73 SE8         N/A
KAUPULEHU*     NOT AVBL
KAPAPALA*        N/A     73  67  80 CALM        N/A
LOWER KAHUKU*  NOT AVBL
PUHE CS*       NOT AVBL
PUHO CS*       NOT AVBL
PTA KEAMUKU*     N/A     68  59  73 CALM        N/A
WAIKOLOA*      NOT AVBL
$$

HIZ027>028-310200-
BIG ISLAND OF HAWAII INTERIOR AND SUMMMITS-

CITY           SKY/WX    TMP DP  RH WIND       PRES   REMARKS
BRADSHAW FIELD SUNNY     68  49  52 W8G14     30.23F
MK VISITOR CEN NOT AVBL
MAUNA KEA*       N/A     37   5  25 NW31        N/A  WCI  25
MAUNA LOA*       N/A     54   7  15 MISG        N/A
MAUNA LOA 1*   NOT AVBL
PTA KIPUKA*      N/A     68  55  64 NW7G16      N/A
PTA RANGE 17*    N/A     64  54  68 W10G16      N/A
PTA WEST*        N/A     64  55  72 NW12        N/A
NENE CABIN*    NOT AVBL
AHUMOA*        NOT AVBL
PTA PORTABLE*  NOT AVBL
PUU MALI*      NOT AVBL
$$

HIC003-310200-
NORTHWEST ISLANDS-

CITY           SKY/WX    TMP DP  RH WIND       PRES   REMARKS
MIDWAY ISLAND  SUNNY     63  41  45 CALM      30.07F
MIDWAY NOS*    NOT AVBL
FRENCH FRIGATE NOT AVBL
$$

PHZ110>124-180-310200-
BUOY REPORTS

STATION/POSITION TIME  TEMP    WIND        PRES    WAVE   SWELL
                       AIR SEA DIR/SP/G            HT/PER HT/DIR
                 (UTC) (F)     (DEG/KT/KT) (MB)    (FT/S) (FT/D)
BUOY 51001       NOT AVBL
BUOY 51101       0100   67 72  280/ 14/ 16 1013.6F  10/13  10/300
BUOY 51100       0100   71     360/  2       N/A
BUOY 51003       0000   75 78   30/  8/ 10 1013.8F   6/11   7
BUOY 51004       0001   77 78   70/ 10/ 12 1012.5F   5/14   5/310
BARBERS PT BUOY  NOT AVBL
WAIMEA BAY BUOY  0100      77                N/A    10/11   8/320
KAILUA BAY BUOY  0100      77                N/A     6/11   3/340
LANAI BUOY       0100      78                N/A     3/13   2/280
BARBERS PT 2     0000      78                N/A     6/12   3/320
PAUWELA MAUI     0100      76                N/A     7/13   5/310
HILO             0100      77                N/A     4/13   3/350
KANEOHE BAY BUOY 0100      76                N/A     6/11   3/340
HANALEI KAUAI    NOT AVBL
KAHULUI HARBOR   0100   74 77   20/  8/ 10 1013.0F
HONOLULU HARBOR  0100   76 76  210/  7/ 10 1013.0S
KILO NALU        NOT AVBL
HILO HARBOR      0100   77 77   20/  6/  7 1012.6S
MOKUOLOE         0100      75              1013.4R
NAWILIWILI       0100      76                N/A
WHOTS BUOY       NOT AVBL
BUOY 51028       NOT AVBL
$$

......................KEY........................................
  SKY/WX - SKY CONDITIONS/PRESENT WEATHER
  TMP    - TEMPERATURE IN FAHRENHEIT
  DWPT   - DEWPOINT IN FAHRENHEIT
  RH     - RELATIVE HUMIDITY IN PERCENT
  WIND   - DIRECTION AND SPEED /MPH FOR ISLANDS...KTS FOR BUOYS/
  PRES   - MEAN SEA LEVEL PRESSURE IN INCHES OF HG
  VSB    - VISIBILITY IN MILES
  HX     - HEAT INDEX
  WCI    - WIND CHILL INDEX
  VRB    - VARIABLE WIND DIRECTION
  N/A    - NOT AVAILABLE



USA.gov is the U.S. government's official web portal to all federal, state and local government web resources and services.